KD7KCN-5 Weather Reports


Display with metric or nautical units.
time (UTC)temp
F
wind
direction
speed
MPH
gust
MPH
rain 1hr
in
rain 24hr
in
rain mn
in
humidity
%
barometer
mb
20260503204153 73 158 18.0 30.0 0.00 0.00 0.00 17 1011.1
20260503203154 73 120 8.0 16.0 0.00 0.00 0.00 18 1011.3
20260503202154 72 150 13.0 26.0 0.00 0.00 0.00 17 1011.5
20260503201154 71 163 9.0 27.0 0.00 0.00 0.00 18 1011.5
20260503200155 73 165 19.0 28.0 0.00 0.00 0.00 16 1011.6
20260503191154 71 204 11.0 30.0 0.00 0.00 0.00 19 1012.7
20260503190154 72 115 18.0 25.0 0.00 0.00 0.00 18 1012.4
20260503185154 72 140 20.0 29.0 0.00 0.00 0.00 17 1012.8
20260503184154 71 202 6.0 30.0 0.00 0.00 0.00 19 1013.1
20260503183154 70 153 14.0 30.0 0.00 0.00 0.00 17 1013.2
20260503182155 70 138 11.0 19.0 0.00 0.00 0.00 19 1013.5
20260503181154 70 144 15.0 27.0 0.00 0.00 0.00 18 1013.8
20260503180154 71 106 19.0 27.0 0.00 0.00 0.00 17 1013.5
20260503175154 71 109 12.0 23.0 0.00 0.00 0.00 17 1013.8
20260503174154 71 118 12.0 20.0 0.00 0.00 0.00 17 1013.8
20260503172154 70 158 11.0 19.0 0.00 0.00 0.00 18 1014.2
20260503171154 72 140 10.0 16.0 0.00 0.00 0.00 17 1014.4
20260503160154 67 115 7.0 15.0 0.00 0.00 0.00 20 1015.0
20260503150154 64 186 4.0 12.0 0.00 0.00 0.00 20 1015.4
20260503140154 61 0 0.0 5.0 0.00 0.00 0.00 20 1015.2
20260503131155 59 190 1.0 6.0 0.00 0.00 0.00 19 1014.0
20260503130155 59 198 3.0 7.0 0.00 0.00 0.00 20 1014.0
20260503120155 60 0 0.0 2.0 0.00 0.00 0.00 18 1014.2
20260503110155 60 0 0.0 0.0 0.00 0.00 0.00 15 1014.5
20260503100155 60 204 2.0 4.0 0.00 0.00 0.00 14 1014.9
20260503090155 60 189 5.0 9.0 0.00 0.00 0.00 15 1015.4
20260503081155 62 0 0.0 0.0 0.00 0.00 0.00 14 1015.9
20260503080155 62 0 0.0 1.0 0.00 0.00 0.00 14 1016.0
20260503072155 62 212 3.0 8.0 0.00 0.00 0.00 14 1016.0
20260503071155 61 213 5.0 7.0 0.00 0.00 0.00 14 1016.1
20260503070156 62 0 0.0 5.0 0.00 0.00 0.00 13 1016.1
20260503060155 63 233 2.0 6.0 0.00 0.00 0.00 12 1015.2
20260503054155 63 245 5.0 8.0 0.00 0.00 0.00 13 1015.3
20260503053155 63 232 3.0 6.0 0.00 0.00 0.00 13 1015.3
20260503052156 63 212 3.0 6.0 0.00 0.00 0.00 13 1015.3
20260503051156 63 215 1.0 3.0 0.00 0.00 0.00 13 1015.3
20260503050156 63 211 1.0 3.0 0.00 0.00 0.00 13 1015.3
20260503045156 63 222 1.0 5.0 0.00 0.00 0.00 13 1015.3
20260503044156 63 238 4.0 6.0 0.00 0.00 0.00 13 1015.2
20260503043156 63 239 4.0 7.0 0.00 0.00 0.00 12 1015.1
20260503042156 63 249 4.0 7.0 0.00 0.00 0.00 12 1015.1
20260503041156 63 252 8.0 11.0 0.00 0.00 0.00 12 1015.0
20260503040156 63 243 9.0 11.0 0.00 0.00 0.00 12 1014.9
20260503035156 63 248 9.0 10.0 0.00 0.00 0.00 12 1014.8
20260503034156 63 241 7.0 11.0 0.00 0.00 0.00 12 1014.6
20260503033156 63 247 7.0 9.0 0.00 0.00 0.00 12 1014.5
20260503032156 63 242 7.0 12.0 0.00 0.00 0.00 13 1014.5
20260503031156 63 248 8.0 11.0 0.00 0.00 0.00 12 1014.4
20260503030156 64 246 9.0 11.0 0.00 0.00 0.00 12 1014.4
20260503025156 64 247 8.0 11.0 0.00 0.00 0.00 12 1014.3
20260503024156 64 238 7.0 10.0 0.00 0.00 0.00 12 1014.2
20260503023156 64 248 8.0 11.0 0.00 0.00 0.00 13 1014.2
20260503022156 64 247 5.0 10.0 0.00 0.00 0.00 13 1014.3
20260503021156 65 243 5.0 8.0 0.00 0.00 0.00 13 1014.3
20260503020156 65 245 4.0 8.0 0.00 0.00 0.00 14 1014.4
20260503015156 65 237 3.0 5.0 0.00 0.00 0.00 14 1014.4
20260503014158 66 238 1.0 5.0 0.00 0.00 0.00 15 1014.4
20260503013156 66 0 0.0 4.0 0.00 0.00 0.00 14 1014.6
20260503012156 66 210 1.0 8.0 0.00 0.00 0.00 15 1014.5
20260503011156 67 203 1.0 8.0 0.00 0.00 0.00 14 1014.5
20260503010156 67 233 4.0 10.0 0.00 0.00 0.00 14 1014.5
20260503005156 67 204 1.0 12.0 0.00 0.00 0.00 14 1014.5
20260503004156 68 164 4.0 11.0 0.00 0.00 0.00 14 1014.4
20260503003156 68 204 8.0 16.0 0.00 0.00 0.00 13 1014.5
20260503002156 69 130 4.0 12.0 0.00 0.00 0.00 12 1014.5
20260503001156 69 112 5.0 11.0 0.00 0.00 0.00 14 1014.4
20260503000157 69 186 5.0 18.0 0.00 0.00 0.00 14 1014.4
20260502235157 70 189 6.0 11.0 0.00 0.00 0.00 13 1014.4
20260502234156 70 171 1.0 13.0 0.00 0.00 0.00 13 1014.4
20260502233156 71 0 0.0 5.0 0.00 0.00 0.00 14 1014.6
20260502232156 70 201 7.0 13.0 0.00 0.00 0.00 12 1014.6
20260502231156 70 0 0.0 2.0 0.00 0.00 0.00 11 1014.6
20260502230156 70 173 5.0 15.0 0.00 0.00 0.00 12 1014.8
20260502225157 70 177 10.0 20.0 0.00 0.00 0.00 12 1014.9
20260502224157 70 186 2.0 16.0 0.00 0.00 0.00 11 1014.9
20260502223157 70 180 12.0 18.0 0.00 0.00 0.00 12 1015.2
20260502222156 72 188 12.0 19.0 0.00 0.00 0.00 12 1015.4
20260502221157 72 151 2.0 11.0 0.00 0.00 0.00 12 1015.5
20260502220156 72 221 3.0 9.0 0.00 0.00 0.00 12 1015.7
20260502215157 71 0 0.0 12.0 0.00 0.00 0.00 11 1015.9
20260502214156 70 181 8.0 17.0 0.00 0.00 0.00 11 1016.1
20260502213157 70 171 8.0 25.0 0.00 0.00 0.00 12 1016.2
20260502212157 70 149 12.0 21.0 0.00 0.00 0.00 12 1016.4
20260502211157 70 83 1.0 20.0 0.00 0.00 0.00 14 1016.4
20260502210157 69 0 0.0 17.0 0.00 0.00 0.00 14 1016.7
20260502205157 68 159 11.0 19.0 0.00 0.00 0.00 13 1016.9